Location: St Andrew
(49.4460°N, 2.5750°W)
Time: 13:16:11
(UTC+01:00)

Daily predictions for brighter satellites

Satellite Brightness Start Highest point End
(mag) Time Altitude Azimuth Time Altitude Azimuth Time Altitude Azimuth
Cosmos 2233 Rocket 4.0 19:20:38 10° S 19:26:53 70° E 19:33:12 10° NNE
Meteor 1-22 Rocket 4.5 19:25:05 10° SSE 19:30:03 41° E 19:35:00 10° NNE
FREGAT/IRIS 2.8 19:27:41 10° SSE 19:30:43 53° ENE 19:33:46 10° N
Meteor 2-5 Rocket 4.1 19:26:09 10° NNW 19:31:49 74° W 19:37:22 10° S
Timation 1 Rocket 4.4 19:26:26 10° NNW 19:32:24 63° NE 19:38:19 10° SE
Cosmos 2278 Rocket 3.0 19:27:13 10° NW 19:32:46 58° WSW 19:38:17 10° S
Cosmos 2360 Rocket 4.2 19:28:26 10° WSW 19:33:22 30° NW 19:38:21 10° NNE
ERBS 4.2 19:30:47 10° WNW 19:33:39 23° N 19:36:34 10° NE
Cosmos 1953 3.8 19:31:13 10° SE 19:33:48 17° E 19:36:24 10° NE
Cosmos 2219 Rocket 2.4 19:28:12 10° SSW 19:33:51 83° WNW 19:39:34 10° NNE
Cosmos 1812 Rocket 3.6 19:31:12 10° S 19:35:31 87° W 19:39:55 10° N
Cosmos 1766 Rocket 4.2 19:31:30 10° N 19:35:33 34° ENE 19:39:33 10° SE
ATLAS 3B R/B 3.1 19:28:08 10° SW 19:35:46 80° NW 19:43:08 10° NE
Cosmos 2297 3.7 19:30:29 10° NNW 19:36:13 83° ENE 19:41:53 10° SSE
Meteor 1-24 Rocket 3.7 19:31:31 10° N 19:37:18 77° ENE 19:42:49 10° SSE
Cosmos 1607 3.9 19:32:09 10° SSW 19:38:16 70° SE 19:44:24 10° NE
SAR-Lupe-1 4.2 19:35:48 10° S 19:39:22 78° WSW 19:42:57 10° NNW
METEOR-M 4.1 19:37:22 10° SSE 19:42:41 69° ENE 19:48:02 10° N
Aureole 2 Rocket 3.6 19:41:50 10° S 19:45:50 35° ESE 19:49:46 10° NE
FENGYUN 3A 4.1 19:43:29 10° SE 19:48:31 43° ENE 19:53:36 10° N
NOSS 3-2 (A) 4.0 19:45:17 10° S 19:50:50 37° ESE 19:56:50 10° NE
Cosmos 2369 Rocket 3.4 19:47:39 10° NNW 19:52:18 25° NE 19:56:23 12° E
Cosmos 1805 4.3 19:49:07 10° SE 19:52:20 25° E 19:55:36 10° NE
Cosmos 1452 Rocket 3.6 19:48:25 10° NNW 19:53:38 57° ENE 19:58:48 10° SE
USA 238 DEB 3.8 19:48:24 10° SW 19:55:26 80° SE 20:02:31 10° NE
H-2A R/B 3.6 19:51:57 10° SE 19:55:28 32° ENE 19:58:58 10° N
USA 238 3.8 19:48:30 10° SSW 19:55:32 79° SE 20:02:37 10° NE
TELKOM 3 3.1 19:54:06 10° W 19:57:11 81° SSW 19:58:44 18° ESE
ERS-1 Rocket 4.4 19:54:36 12° E 19:57:40 20° ENE 20:01:18 10° NNE
USA 186 2.8 19:58:49 15° ENE 19:58:49 15° ENE 20:00:18 10° NNE
Meteor 1-28 Rocket 3.1 19:55:22 10° NNE 19:59:07 84° ESE 20:02:50 10° SSW
Cosmos 1076 Rocket 3.5 19:55:02 10° N 19:59:22 69° ENE 20:03:40 10° SSE
Cosmos 1680 Rocket 4.5 19:54:22 10° SW 19:59:34 53° WNW 20:04:49 10° NNE
Meteor 1-29 3.5 19:56:25 10° NNE 19:59:44 37° E 20:03:01 10° SSE
HJ-1C 3.4 19:57:23 10° SSE 20:00:45 89° WSW 20:04:09 10° NNW
Cosmos 1378 3.2 19:57:39 10° NNW 20:01:25 80° W 20:05:08 10° S
SeaSat 1 3.7 19:58:15 10° ENE 20:01:50 20° ESE 20:05:22 10° SSE
Cosmos 1943 Rocket 3.9 20:00:43 10° N 20:04:31 18° NE 20:07:47 12° ENE
SJ-6B 4.1 20:02:44 10° S 20:06:33 45° W 20:10:29 10° NNW
Cosmos-2242 3.6 20:03:15 10° SSE 20:07:12 35° E 20:11:12 10° NNE
FengYun 1-2 T 4.2 20:02:00 10° SSE 20:07:30 79° ENE 20:13:01 10° NNW
Cosmos 2333 Rocket 2.8 20:02:25 10° SW 20:08:09 63° WNW 20:13:54 10° NNE
Helios 1B rocket 2.4 20:04:42 10° NNE 20:08:47 60° ESE 20:12:51 10° S
Cosmos 1500 Rocket 4.4 20:06:31 10° N 20:10:25 30° ENE 20:13:05 17° ESE
Cosmos 1544 4.1 20:08:10 10° SSE 20:11:18 26° E 20:14:29 10° NNE
Cosmos 1408 Rocket 3.5 20:07:14 10° N 20:11:39 81° E 20:15:59 10° SSE
Cosmos 1470 4.3 20:13:02 17° ENE 20:13:02 17° ENE 20:15:15 10° NE
Cosmos 1758 3.7 20:10:16 10° SSE 20:14:08 43° E 20:18:03 10° NNE
Meteor 1-21 Rocket 4.2 20:10:37 10° N 20:16:12 65° ENE 20:21:41 10° SSE
Nadezhda 4 Rocket 4.1 20:10:30 10° N 20:16:44 56° ENE 20:22:51 10° SSE
Cosmos 1072 Rocket 4.4 20:10:49 10° S 20:16:56 83° E 20:23:05 10° N
Cosmos 1346 3.5 20:14:39 10° N 20:17:31 40° ENE 20:18:43 26° SE
Cosmos 1420 Rocket 4.2 20:12:44 10° NNW 20:17:57 53° ENE 20:22:06 16° SE
Resurs 01 Rocket 2.1 20:13:51 10° S 20:18:15 65° WSW 20:22:43 10° NNW
Cosmos 292 Rocket 4.4 20:14:13 10° SW 20:18:58 60° WNW 20:23:46 10° NNE
Cosmos 1092 Rocket 4.3 20:15:24 10° N 20:21:24 46° ENE 20:26:53 12° SE
Resurs 1-3 3.8 20:18:24 10° S 20:22:47 73° WSW 20:27:13 10° NNW
Cosmos 2151 4.2 20:20:55 10° NNE 20:24:18 23° ENE 20:24:56 22° E
In-Cosmos 22 4.3 20:19:22 10° NNW 20:25:11 85° W 20:30:58 10° S
NOSS 3-2 (C) 3.6 20:21:35 10° SSW 20:27:29 51° ESE 20:33:57 10° NE
ATLAS CENTAUR R/B 4.0 20:30:33 10° WNW 20:33:25 18° WSW 20:36:09 10° SSW
CZ-4C R/B 2.8 20:30:08 10° WSW 20:35:36 63° NW 20:41:53 10° NE
Cosmos 2237 Rocket 3.3 20:31:44 10° SW 20:37:12 47° NW 20:42:42 10° NNE
ALOS 2.4 20:32:33 10° S 20:37:13 77° WSW 20:41:55 10° NNW
Cosmos 1939 Rocket 3.8 20:36:49 28° E 20:37:19 29° ENE 20:40:50 10° N
Cosmos 1743 Rocket 3.5 20:33:45 10° N 20:38:14 75° E 20:41:55 15° SSE
CZ-4B DEB 3.3 20:36:12 10° S 20:39:26 60° WSW 20:42:42 10° NNW
Cosmos 1634 Rocket 4.5 20:35:37 14° SSE 20:40:22 37° E 20:45:58 10° NNE
Cosmos 482 Debris 4.0 20:39:40 10° W 20:41:56 50° N 20:42:44 37° NE
Cosmos 2058 4.2 20:40:59 10° NNE 20:43:57 23° ENE 20:43:57 23° ENE
GP-B 3.4 20:41:06 10° NNE 20:45:23 44° E 20:46:45 34° SE
Cosmos 1674 2.6 20:42:09 10° N 20:46:01 65° ENE 20:47:27 36° SSE
Cosmos 1328 4.4 20:43:18 10° N 20:46:58 35° ENE 20:46:58 35° ENE
Meteor 2-12 Rocket 4.4 20:42:50 10° S 20:49:00 84° E 20:55:12 10° N
ATLAS 5 CENTAUR R/B 1.9 20:44:58 10° SSW 20:49:40 53° SE 20:54:49 10° NE
Envisat 3.4 20:49:23 33° ESE 20:51:03 44° ENE 20:55:53 10° N
Cosmos 2034 Rocket 4.1 20:44:57 10° SSW 20:51:13 82° W 20:57:35 10° N
ASTEX 1 3.3 20:46:16 10° N 20:51:14 81° E 20:56:08 10° S
SL-16 R/B 2.5 20:49:49 10° SW 20:55:29 68° WNW 21:01:12 10° NNE
Cosmos 839 Rocket 4.4 20:47:37 10° NW 20:55:58 70° NE 20:59:29 31° ESE
USA 215 3.2 20:52:40 10° ENE 20:59:15 86° SSE 21:05:48 10° WSW
SL-14 R/B 4.5 20:58:27 10° N 21:01:14 29° NE 21:01:14 29° NE
CZ-4 DEB 3.9 21:03:30 32° NNE 21:03:30 32° NNE 21:05:27 10° N
Exosat Rocket 4.4 20:59:07 10° NNW 21:05:09 62° ENE 21:08:58 32° SE
Terra 4.1 21:07:59 11° NE 21:07:59 11° NE 21:08:34 10° NE
Cosmos 724 4.3 21:02:02 10° SSW 21:07:52 62° ESE 21:13:55 10° NE
Cosmos 1953 3.3 21:06:03 10° SSW 21:09:54 47° WNW 21:13:46 10° N
ERBS 3.7 21:08:02 10° NW 21:11:12 31° NNE 21:11:12 31° NNE
ARGOS 4.1 21:15:39 30° ENE 21:15:39 30° ENE 21:20:18 10° N
YAOGAN 11 3.9 21:16:38 65° SSE 21:17:16 86° ENE 21:21:35 10° NNW
SJ-11-01 4.2 21:18:01 45° S 21:19:27 83° WSW 21:24:11 10° NNW
Cosmos 1627 Rocket 4.4 21:13:59 10° N 21:20:11 77° E 21:22:46 38° SSE
Cosmos 1805 Rocket 4.3 21:17:15 10° N 21:20:42 40° NE 21:20:42 40° NE
H-2A R/B 2.7 21:23:14 44° NE 21:23:14 44° NE 21:26:57 10° N
YAOGAN 6 4.5 21:25:58 22° NNE 21:25:58 22° NNE 21:27:36 10° N
ATLAS 3B R/B 4.3 21:20:51 10° W 21:27:34 34° NNW 21:34:00 10° NE
SPOT 5 3.3 21:28:55 42° NNE 21:28:55 42° NNE 21:32:15 10° N
Cosmos 1110 Rocket 3.9 21:24:31 10° NNW 21:29:49 68° ENE 21:30:14 65° E
Meteor 2-20 4.5 21:27:35 10° N 21:33:41 57° ENE 21:34:14 55° E
ERS-1 Rocket 3.1 21:34:37 48° S 21:35:57 70° WSW 21:41:00 10° NNW
Cosmos 2263 4.1 21:30:41 10° NNW 21:36:31 83° ENE 21:37:22 66° SE
Cosmos 2369 Rocket 2.2 21:31:17 10° NNW 21:36:56 76° WSW 21:38:11 55° S
Cosmos 1633 Rocket 4.5 21:33:07 10° N 21:35:31 27° NNE 21:35:31 27° NNE
SL-24 R/B - RUBIN 2 4.5 21:32:56 10° NW 21:39:42 72° NE 21:40:51 59° ESE
SeaSat 1 2.6 21:34:52 10° NNE 21:39:49 74° WNW 21:44:44 10° SW
NOSS 3-2 (A) 4.1 21:35:14 10° WSW 21:41:25 59° NW 21:48:16 10° NE
Cosmos 1603 3.9 21:36:45 10° SW 21:42:29 73° WNW 21:48:17 10° NNE
Cosmos 1470 3.8 21:48:24 42° WNW 21:48:26 42° WNW 21:52:10 10° N
Cosmos 1943 Rocket 2.2 21:43:44 10° NNW 21:49:18 67° NE 21:49:18 67° NE
Cosmos 2221 4.4 21:52:35 22° NNE 21:52:35 22° NNE 21:54:13 10° NNE
Meteor 1-11 4.4 21:49:06 10° NNW 21:54:55 72° W 21:55:55 59° SSW
Cosmos 1655 Rocket 4.0 21:50:01 10° NNW 21:56:15 74° W 21:57:46 53° SSW
Cosmos 2151 4.2 21:57:50 10° NNW 22:01:33 39° W 22:01:33 39° W
Cosmos 1331 Rocket 4.2 22:00:49 10° NNW 22:05:44 69° WNW 22:05:44 69° WNW
Cosmos 2279 Rocket 3.8 22:06:31 84° S 22:06:45 89° ESE 22:13:00 10° N
MetOp-B 4.2 22:07:41 75° NW 22:07:41 75° NW 22:12:41 10° NNW
Meteor 1-16 Rocket 4.3 22:10:53 67° NW 22:10:53 67° NW 22:15:47 10° N
Aureole 3 4.3 22:05:41 10° N 22:12:33 86° WNW 22:12:33 86° WNW
BREEZE-M DEB (TANK) 3.9 22:07:40 10° W 22:14:53 65° W 22:14:53 65° W
NOSS 3-2 (C) 4.4 22:12:26 10° WSW 22:18:31 48° NW 22:25:16 10° NE
H-2A R/B 3.3 22:22:30 32° NNE 22:22:30 32° NNE 22:25:25 10° N
Cosmos 2266 Rocket 4.2 22:14:18 10° N 22:19:52 64° NNE 22:19:52 64° NNE
CENTAUR R/B 4.2 22:26:21 23° NE 22:26:21 23° NE 22:28:50 10° NE
CZ-4C R/B 4.3 22:20:26 10° WNW 22:25:25 27° NNW 22:30:57 10° NE
ATLAS 5 CENTAUR R/B 3.3 22:29:56 10° W 22:34:36 38° NNW 22:36:51 26° NNE
USA 215 3.8 22:39:38 36° NE 22:42:03 52° NNW 22:48:20 10° W
Terra 3.8 22:46:53 24° N 22:46:53 24° N 22:48:50 10° N
ARGOS 4.3 22:57:10 39° NW 22:57:10 39° NW 23:00:58 10° NNW
Cosmos 1980 Rocket 4.4 23:05:19 10° N 23:08:22 17° NNE 23:08:22 17° NNE
Cosmos 1943 Rocket 4.3 23:28:20 10° NW 23:30:50 19° WNW 23:30:50 19° WNW
